Time,TemperatureF,DewpointF,PressureIn,WindDirection,WindDirectionDegrees,WindSpeedMPH,WindSpeedGustMPH,Humidity,HourlyPrecipIn,Conditions,Clouds,dailyrainin,SoftwareType,DateUTC
2013-11-22 00:05:00,20.3,17.8,29.38,NNE,22,6.0,7.0,90,0.00,,,0.00,Weather View 32 v70,2013-11-22 09:05:00,
2013-11-22 00:10:00,20.3,17.8,29.38,NNE,22,6.0,7.0,90,0.00,,,0.00,Weather View 32 v70,2013-11-22 09:10:00,
2013-11-22 00:15:00,20.5,18.0,29.38,North,0,5.0,7.0,90,0.00,,,0.00,Weather View 32 v70,2013-11-22 09:15:00,
2013-11-22 00:20:00,20.5,18.0,29.38,NNW,338,5.0,7.0,90,0.00,,,0.00,Weather View 32 v70,2013-11-22 09:20:00,
2013-11-22 00:25:00,20.7,18.2,29.38,North,0,6.0,7.0,90,0.00,,,0.00,Weather View 32 v70,2013-11-22 09:25:00,
2013-11-22 00:30:00,20.7,18.2,29.38,NE,45,6.0,7.0,90,0.00,,,0.00,Weather View 32 v70,2013-11-22 09:30:00,
2013-11-22 00:35:00,20.7,18.2,29.38,NNE,22,6.0,7.0,90,0.00,,,0.00,Weather View 32 v70,2013-11-22 09:35:00,
2013-11-22 00:40:00,20.7,18.2,29.38,NNW,338,5.0,7.0,90,0.00,,,0.00,Weather View 32 v70,2013-11-22 09:40:00,
2013-11-22 00:45:00,21.0,18.5,29.38,NE,45,6.0,7.0,90,0.00,,,0.00,Weather View 32 v70,2013-11-22 09:45:00,
2013-11-22 00:50:00,21.0,18.5,29.38,NNW,338,6.0,7.0,90,0.00,,,0.00,Weather View 32 v70,2013-11-22 09:50:00,
2013-11-22 00:55:00,21.0,18.5,29.38,North,0,6.0,7.0,90,0.00,,,0.00,Weather View 32 v70,2013-11-22 09:55:00,
2013-11-22 01:00:00,21.0,18.5,29.38,North,0,6.0,7.0,90,0.00,,,0.00,Weather View 32 v70,2013-11-22 10:00:00,
2013-11-22 01:05:00,21.0,18.5,29.38,NNW,338,6.0,7.0,90,0.00,,,0.00,Weather View 32 v70,2013-11-22 10:05:00,
2013-11-22 01:10:00,21.0,18.5,29.38,NNW,338,6.0,6.0,90,0.00,,,0.00,Weather View 32 v70,2013-11-22 10:10:00,
2013-11-22 01:15:00,21.0,18.5,29.38,NNE,22,6.0,6.0,90,0.00,,,0.00,Weather View 32 v70,2013-11-22 10:15:00,
2013-11-22 01:20:00,21.0,18.5,29.38,NNE,22,6.0,6.0,90,0.00,,,0.00,Weather View 32 v70,2013-11-22 10:20:00,
2013-11-22 01:25:00,21.0,18.5,29.38,NNE,22,6.0,6.0,90,0.00,,,0.00,Weather View 32 v70,2013-11-22 10:25:00,
2013-11-22 01:30:00,21.0,18.5,29.38,NNE,22,5.0,6.0,90,0.00,,,0.00,Weather View 32 v70,2013-11-22 10:30:00,
2013-11-22 01:35:00,21.0,18.5,29.38,NNE,22,3.0,6.0,90,0.00,,,0.00,Weather View 32 v70,2013-11-22 10:35:00,
2013-11-22 01:40:00,21.0,18.5,29.38,WNW,292,3.0,6.0,90,0.00,,,0.00,Weather View 32 v70,2013-11-22 10:40:00,
2013-11-22 01:45:00,21.4,18.9,29.38,NNW,338,3.0,6.0,90,0.00,,,0.00,Weather View 32 v70,2013-11-22 10:45:00,
2013-11-22 01:50:00,21.2,18.7,29.38,NNE,22,3.0,6.0,90,0.00,,,0.00,Weather View 32 v70,2013-11-22 10:50:00,
2013-11-22 02:00:00,21.4,18.9,29.38,North,0,4.0,6.0,90,0.00,,,0.00,Weather View 32 v70,2013-11-22 11:00:00,
2013-11-22 02:08:00,21.4,18.9,29.39,NW,315,4.0,6.0,90,0.00,,,0.00,Weather View 32 v70,2013-11-22 11:08:00,
2013-11-22 02:15:00,21.4,18.9,29.39,North,0,5.0,6.0,90,0.00,,,0.00,Weather View 32 v70,2013-11-22 11:15:00,
2013-11-22 02:25:00,21.4,18.9,29.38,North,0,4.0,6.0,90,0.00,,,0.00,Weather View 32 v70,2013-11-22 11:25:00,
2013-11-22 02:30:00,21.4,18.9,29.38,North,0,4.0,5.0,90,0.00,,,0.00,Weather View 32 v70,2013-11-22 11:30:00,
2013-11-22 02:35:00,21.4,18.9,29.38,NNE,22,6.0,6.0,90,0.00,,,0.00,Weather View 32 v70,2013-11-22 11:35:00,
2013-11-22 02:40:00,21.4,18.9,29.38,North,0,6.0,6.0,90,0.00,,,0.00,Weather View 32 v70,2013-11-22 11:40:00,
2013-11-22 02:45:00,21.7,19.3,29.39,North,0,5.0,6.0,90,0.00,,,0.00,Weather View 32 v70,2013-11-22 11:45:00,
2013-11-22 02:50:00,21.7,19.3,29.39,NNE,22,4.0,6.0,90,0.00,,,0.00,Weather View 32 v70,2013-11-22 11:50:00,
2013-11-22 02:55:00,21.6,19.1,29.39,NNE,22,3.0,6.0,90,0.00,,,0.00,Weather View 32 v70,2013-11-22 11:55:00,
2013-11-22 03:00:00,21.7,19.3,29.39,NW,315,4.0,6.0,90,0.00,,,0.00,Weather View 32 v70,2013-11-22 12:00:00,
2013-11-22 03:05:00,21.7,19.3,29.39,NNE,22,3.0,6.0,90,0.00,,,0.00,Weather View 32 v70,2013-11-22 12:05:00,
2013-11-22 03:10:00,21.7,19.3,29.39,NNE,22,3.0,6.0,90,0.00,,,0.00,Weather View 32 v70,2013-11-22 12:10:00,
2013-11-22 03:15:00,21.9,19.4,29.39,NNE,22,3.0,6.0,90,0.00,,,0.00,Weather View 32 v70,2013-11-22 12:15:00,
2013-11-22 03:20:00,21.9,19.4,29.39,WNW,292,3.0,6.0,90,0.00,,,0.00,Weather View 32 v70,2013-11-22 12:20:00,
2013-11-22 03:25:00,22.1,19.6,29.39,NNE,22,2.0,6.0,90,0.00,,,0.00,Weather View 32 v70,2013-11-22 12:25:00,
2013-11-22 03:30:00,22.1,19.6,29.39,NNW,338,3.0,6.0,90,0.00,,,0.00,Weather View 32 v70,2013-11-22 12:30:00,
2013-11-22 03:35:00,22.1,19.6,29.39,North,0,3.0,6.0,90,0.00,,,0.00,Weather View 32 v70,2013-11-22 12:35:00,
2013-11-22 03:40:00,22.1,19.6,29.39,NE,45,3.0,6.0,90,0.00,,,0.00,Weather View 32 v70,2013-11-22 12:40:00,
2013-11-22 03:45:00,22.1,19.6,29.39,NNE,22,3.0,5.0,90,0.00,,,0.00,Weather View 32 v70,2013-11-22 12:45:00,
2013-11-22 03:50:00,22.1,19.6,29.39,NNW,338,3.0,4.0,90,0.00,,,0.00,Weather View 32 v70,2013-11-22 12:50:00,
2013-11-22 03:55:00,22.1,19.6,29.39,North,0,3.0,4.0,90,0.00,,,0.00,Weather View 32 v70,2013-11-22 12:55:00,
2013-11-22 04:05:00,22.1,19.6,29.39,ENE,68,3.0,4.0,90,0.00,,,0.00,Weather View 32 v70,2013-11-22 13:05:00,
2013-11-22 04:10:00,21.9,19.4,29.39,NE,45,3.0,3.0,90,0.00,,,0.00,Weather View 32 v70,2013-11-22 13:10:00,
2013-11-22 04:15:00,21.9,19.4,29.39,SW,225,3.0,3.0,90,0.00,,,0.00,Weather View 32 v70,2013-11-22 13:15:00,
2013-11-22 04:20:00,21.9,19.4,29.39,NE,45,2.0,3.0,90,0.00,,,0.00,Weather View 32 v70,2013-11-22 13:20:00,
2013-11-22 04:25:00,22.1,19.6,29.40,NNE,22,2.0,3.0,90,0.00,,,0.00,Weather View 32 v70,2013-11-22 13:25:00,
2013-11-22 04:30:00,21.7,19.3,29.40,ENE,68,2.0,3.0,90,0.00,,,0.00,Weather View 32 v70,2013-11-22 13:30:00,
2013-11-22 04:35:00,21.7,19.3,29.40,NNE,22,2.0,3.0,90,0.00,,,0.00,Weather View 32 v70,2013-11-22 13:35:00,
2013-11-22 04:40:00,21.7,19.3,29.40,NNE,22,2.0,3.0,90,0.00,,,0.00,Weather View 32 v70,2013-11-22 13:40:00,
2013-11-22 04:45:00,21.6,19.1,29.39,NE,45,2.0,3.0,90,0.00,,,0.00,Weather View 32 v70,2013-11-22 13:45:00,
2013-11-22 04:50:00,21.7,19.3,29.39,NE,45,2.0,3.0,90,0.00,,,0.00,Weather View 32 v70,2013-11-22 13:50:00,
2013-11-22 04:55:00,21.7,19.3,29.39,NE,45,2.0,3.0,90,0.00,,,0.00,Weather View 32 v70,2013-11-22 13:55:00,
2013-11-22 05:00:00,21.7,19.3,29.39,NNE,22,2.0,3.0,90,0.00,,,0.00,Weather View 32 v70,2013-11-22 14:00:00,
2013-11-22 05:10:00,21.4,18.9,29.39,NNE,22,2.0,3.0,90,0.00,,,0.00,Weather View 32 v70,2013-11-22 14:10:00,
2013-11-22 05:20:00,21.2,18.7,29.39,ENE,68,2.0,2.0,90,0.00,,,0.00,Weather View 32 v70,2013-11-22 14:20:00,
2013-11-22 05:25:00,21.2,18.7,29.39,ENE,68,1.0,2.0,90,0.00,,,0.00,Weather View 32 v70,2013-11-22 14:25:00,
2013-11-22 05:30:00,21.2,18.7,29.39,ENE,68,1.0,2.0,90,0.00,,,0.00,Weather View 32 v70,2013-11-22 14:30:00,
2013-11-22 05:35:00,21.2,18.7,29.39,West,270,2.0,2.0,90,0.00,,,0.00,Weather View 32 v70,2013-11-22 14:35:00,
2013-11-22 05:40:00,21.2,18.7,29.39,ENE,68,1.0,2.0,90,0.00,,,0.00,Weather View 32 v70,2013-11-22 14:40:00,
2013-11-22 05:45:00,21.4,18.9,29.38,NE,45,1.0,2.0,90,0.00,,,0.00,Weather View 32 v70,2013-11-22 14:45:00,
2013-11-22 05:50:00,21.7,19.3,29.38,NNE,22,1.0,2.0,90,0.00,,,0.00,Weather View 32 v70,2013-11-22 14:50:00,
2013-11-22 05:55:00,21.7,19.3,29.38,NE,45,2.0,2.0,90,0.00,,,0.00,Weather View 32 v70,2013-11-22 14:55:00,
2013-11-22 06:00:00,21.7,19.3,29.38,NE,45,1.0,2.0,90,0.00,,,0.00,Weather View 32 v70,2013-11-22 15:00:00,
2013-11-22 06:05:00,22.1,19.6,29.37,East,90,1.0,2.0,90,0.00,,,0.00,Weather View 32 v70,2013-11-22 15:05:00,
2013-11-22 06:10:00,21.9,19.4,29.37,NNE,22,1.0,2.0,90,0.00,,,0.00,Weather View 32 v70,2013-11-22 15:10:00,
2013-11-22 06:15:00,21.9,19.4,29.37,NNE,22,1.0,2.0,90,0.00,,,0.00,Weather View 32 v70,2013-11-22 15:15:00,
2013-11-22 06:20:00,22.1,19.6,29.37,SE,135,1.0,2.0,90,0.00,,,0.00,Weather View 32 v70,2013-11-22 15:20:00,
2013-11-22 06:25:00,22.1,19.6,29.38,NNW,338,2.0,2.0,90,0.00,,,0.00,Weather View 32 v70,2013-11-22 15:25:00,
2013-11-22 06:30:00,22.1,19.6,29.38,NNE,22,2.0,2.0,90,0.00,,,0.00,Weather View 32 v70,2013-11-22 15:30:00,
2013-11-22 06:35:00,22.5,20.0,29.38,NNE,22,1.0,2.0,90,0.00,,,0.00,Weather View 32 v70,2013-11-22 15:35:00,
2013-11-22 06:40:00,22.5,20.0,29.38,NE,45,1.0,2.0,90,0.00,,,0.00,Weather View 32 v70,2013-11-22 15:40:00,
2013-11-22 06:45:00,22.3,19.8,29.37,NNE,22,1.0,2.0,90,0.00,,,0.00,Weather View 32 v70,2013-11-22 15:45:00,
2013-11-22 06:50:00,22.5,20.0,29.37,ENE,68,1.0,2.0,90,0.00,,,0.00,Weather View 32 v70,2013-11-22 15:50:00,
2013-11-22 06:55:00,22.5,20.0,29.37,NNE,22,2.0,2.0,90,0.00,,,0.00,Weather View 32 v70,2013-11-22 15:55:00,
2013-11-22 07:00:00,22.5,20.0,29.37,NE,45,2.0,2.0,90,0.00,,,0.00,Weather View 32 v70,2013-11-22 16:00:00,
2013-11-22 07:05:00,22.5,20.0,29.37,NE,45,2.0,2.0,90,0.00,,,0.00,Weather View 32 v70,2013-11-22 16:05:00,
2013-11-22 07:10:00,22.5,20.0,29.37,ENE,68,1.0,2.0,90,0.00,,,0.00,Weather View 32 v70,2013-11-22 16:10:00,
2013-11-22 07:15:00,22.5,20.0,29.37,SE,135,2.0,2.0,90,0.00,,,0.00,Weather View 32 v70,2013-11-22 16:15:00,
2013-11-22 07:20:00,22.8,20.6,29.37,NE,45,1.0,2.0,91,0.00,,,0.00,Weather View 32 v70,2013-11-22 16:20:00,
2013-11-22 07:25:00,22.6,20.2,29.36,NNE,22,1.0,2.0,90,0.00,,,0.00,Weather View 32 v70,2013-11-22 16:25:00,
2013-11-22 07:30:00,22.8,20.6,29.36,East,90,1.0,2.0,91,0.00,,,0.00,Weather View 32 v70,2013-11-22 16:30:00,
2013-11-22 07:35:00,22.8,20.6,29.36,ESE,112,1.0,2.0,91,0.00,,,0.00,Weather View 32 v70,2013-11-22 16:35:00,
2013-11-22 07:40:00,22.8,20.6,29.36,ESE,112,1.0,2.0,91,0.00,,,0.00,Weather View 32 v70,2013-11-22 16:40:00,
2013-11-22 07:50:00,23.2,20.9,29.36,East,90,1.0,2.0,91,0.00,,,0.00,Weather View 32 v70,2013-11-22 16:50:00,
2013-11-22 07:55:00,23.2,20.9,29.36,ENE,68,1.0,2.0,91,0.00,,,0.00,Weather View 32 v70,2013-11-22 16:55:00,
2013-11-22 08:00:00,23.2,20.9,29.36,NE,45,1.0,2.0,91,0.00,,,0.00,Weather View 32 v70,2013-11-22 17:00:00,
2013-11-22 08:10:00,23.2,20.9,29.36,SE,135,0.0,2.0,91,0.00,,,0.00,Weather View 32 v70,2013-11-22 17:10:00,
2013-11-22 08:15:00,23.2,20.9,29.36,NE,45,0.0,2.0,91,0.00,,,0.00,Weather View 32 v70,2013-11-22 17:15:00,
2013-11-22 08:20:00,23.2,20.9,29.36,ESE,112,0.0,1.0,91,0.00,,,0.00,Weather View 32 v70,2013-11-22 17:20:00,
2013-11-22 08:25:00,23.2,20.9,29.36,ESE,112,0.0,1.0,91,0.00,,,0.00,Weather View 32 v70,2013-11-22 17:25:00,
2013-11-22 08:30:00,23.2,20.9,29.36,ENE,68,0.0,1.0,91,0.00,,,0.00,Weather View 32 v70,2013-11-22 17:30:00,
2013-11-22 08:35:00,23.2,20.9,29.36,ESE,112,1.0,1.0,91,0.00,,,0.00,Weather View 32 v70,2013-11-22 17:35:00,
2013-11-22 08:40:00,23.2,20.9,29.36,SE,135,1.0,1.0,91,0.00,,,0.00,Weather View 32 v70,2013-11-22 17:40:00,
2013-11-22 08:50:00,23.2,20.9,29.36,ENE,68,0.0,1.0,91,0.00,,,0.00,Weather View 32 v70,2013-11-22 17:50:00,
2013-11-22 09:00:00,23.2,20.9,29.36,ESE,112,1.0,1.0,91,0.00,,,0.00,Weather View 32 v70,2013-11-22 18:00:00,
2013-11-22 09:10:00,23.2,20.9,29.35,NE,45,1.0,1.0,91,0.00,,,0.00,Weather View 32 v70,2013-11-22 18:10:00,
2013-11-22 09:20:00,22.8,20.6,29.35,NE,45,1.0,2.0,91,0.00,,,0.00,Weather View 32 v70,2013-11-22 18:20:00,
2013-11-22 09:35:00,22.8,20.6,29.35,ESE,112,1.0,2.0,91,0.00,,,0.00,Weather View 32 v70,2013-11-22 18:35:00,
2013-11-22 09:40:00,22.6,20.2,29.35,ESE,112,0.0,2.0,90,0.00,,,0.00,Weather View 32 v70,2013-11-22 18:40:00,
2013-11-22 09:45:00,23.2,20.9,29.39,NNE,22,0.0,2.0,91,0.00,,,0.00,Weather View 32 v70,2013-11-22 18:45:00,
2013-11-22 09:50:00,22.8,20.6,29.39,South,180,0.0,2.0,91,0.00,,,0.00,Weather View 32 v70,2013-11-22 18:50:00,
2013-11-22 09:55:00,23.2,20.9,29.39,East,90,0.0,2.0,91,0.00,,,0.00,Weather View 32 v70,2013-11-22 18:55:00,
2013-11-22 10:05:00,23.2,20.9,29.39,WSW,248,0.0,2.0,91,0.00,,,0.00,Weather View 32 v70,2013-11-22 19:05:00,
2013-11-22 10:13:00,23.2,20.9,29.39,South,180,0.0,2.0,91,0.00,,,0.00,Weather View 32 v70,2013-11-22 19:13:00,
2013-11-22 10:25:00,23.5,21.3,29.39,WSW,248,0.0,2.0,91,0.00,,,0.00,Weather View 32 v70,2013-11-22 19:25:00,
2013-11-22 10:31:00,23.5,21.0,29.40,SE,135,0.0,1.0,90,0.00,,,0.00,Weather View 32 v70,2013-11-22 19:31:00,
2013-11-22 10:36:00,23.7,21.2,29.40,ESE,112,0.0,1.0,90,0.00,,,0.00,Weather View 32 v70,2013-11-22 19:36:00,
2013-11-22 10:46:00,23.9,21.4,29.40,ESE,112,0.0,0.0,90,0.00,,,0.00,Weather View 32 v70,2013-11-22 19:46:00,
2013-11-22 10:55:00,24.3,21.8,29.40,SSW,202,1.0,1.0,90,0.00,,,0.00,Weather View 32 v70,2013-11-22 19:55:00,
2013-11-22 11:00:00,24.3,21.8,29.40,SE,135,1.0,1.0,90,0.00,,,0.00,Weather View 32 v70,2013-11-22 20:00:00,
2013-11-22 11:05:00,24.6,22.1,29.40,SE,135,1.0,1.0,90,0.00,,,0.00,Weather View 32 v70,2013-11-22 20:05:00,
2013-11-22 11:14:00,25.0,22.5,29.40,SW,225,1.0,1.0,90,0.00,,,0.00,Weather View 32 v70,2013-11-22 20:14:00,
2013-11-22 11:20:00,25.3,22.8,29.40,SSE,158,1.0,1.0,90,0.00,,,0.00,Weather View 32 v70,2013-11-22 20:20:00,
2013-11-22 17:04:00,26.4,19.9,29.58,SW,225,5.0,5.0,76,0.00,,,0.00,Weather View 32 v70,2013-11-23 02:04:00,
2013-11-22 17:09:00,26.2,19.4,29.57,NW,315,5.0,5.0,75,0.00,,,0.00,Weather View 32 v70,2013-11-23 02:09:00,
2013-11-22 17:14:00,26.1,19.2,29.57,SW,225,5.0,5.0,75,0.00,,,0.00,Weather View 32 v70,2013-11-23 02:14:00,
2013-11-22 17:19:00,26.1,18.9,29.57,SSW,202,5.0,5.0,74,0.00,,,0.00,Weather View 32 v70,2013-11-23 02:19:00,
2013-11-22 17:24:00,26.1,18.9,29.57,South,180,6.0,6.0,74,0.00,,,0.00,Weather View 32 v70,2013-11-23 02:24:00,
2013-11-22 17:29:00,26.1,18.9,29.56,SSE,158,6.0,6.0,74,0.00,,,0.00,Weather View 32 v70,2013-11-23 02:29:00,
2013-11-22 17:34:00,26.1,18.9,29.56,WSW,248,6.0,6.0,74,0.00,,,0.00,Weather View 32 v70,2013-11-23 02:34:00,
2013-11-22 17:39:00,25.7,18.6,29.56,ENE,68,6.0,6.0,74,0.00,,,0.00,Weather View 32 v70,2013-11-23 02:39:00,
2013-11-22 17:44:00,26.1,18.9,29.56,South,180,6.0,6.0,74,0.00,,,0.00,Weather View 32 v70,2013-11-23 02:44:00,
2013-11-22 17:49:00,25.7,18.2,29.57,SSE,158,6.0,6.0,73,0.00,,,0.00,Weather View 32 v70,2013-11-23 02:49:00,
2013-11-22 17:54:00,25.7,18.2,29.57,ESE,112,5.0,6.0,73,0.00,,,0.00,Weather View 32 v70,2013-11-23 02:54:00,
2013-11-22 17:59:00,25.7,18.6,29.57,SW,225,6.0,6.0,74,0.00,,,0.00,Weather View 32 v70,2013-11-23 02:59:00,
2013-11-22 18:04:00,25.5,18.4,29.57,WSW,248,6.0,6.0,74,0.00,,,0.00,Weather View 32 v70,2013-11-23 03:04:00,
2013-11-22 18:09:00,25.7,18.2,29.58,South,180,6.0,6.0,73,0.00,,,0.00,Weather View 32 v70,2013-11-23 03:09:00,
2013-11-22 18:14:00,25.3,18.2,29.58,South,180,5.0,6.0,74,0.00,,,0.00,Weather View 32 v70,2013-11-23 03:14:00,
2013-11-22 18:19:00,25.3,20.3,29.58,SSE,158,6.0,6.0,81,0.00,,,0.00,Weather View 32 v70,2013-11-23 03:19:00,
2013-11-22 18:24:00,25.3,20.0,29.58,SE,135,6.0,6.0,80,0.00,,,0.00,Weather View 32 v70,2013-11-23 03:24:00,
2013-11-22 18:29:00,25.3,18.8,29.59,SE,135,6.0,6.0,76,0.00,,,0.00,Weather View 32 v70,2013-11-23 03:29:00,
2013-11-22 18:34:00,25.3,18.2,29.59,SW,225,6.0,6.0,74,0.00,,,0.00,Weather View 32 v70,2013-11-23 03:34:00,
2013-11-22 18:39:00,25.3,18.2,29.59,South,180,6.0,7.0,74,0.00,,,0.00,Weather View 32 v70,2013-11-23 03:39:00,
2013-11-22 18:44:00,25.2,18.0,29.59,SSE,158,7.0,7.0,74,0.00,,,0.00,Weather View 32 v70,2013-11-23 03:44:00,
2013-11-22 18:49:00,25.3,18.2,29.60,WSW,248,7.0,7.0,74,0.00,,,0.00,Weather View 32 v70,2013-11-23 03:49:00,
2013-11-22 18:54:00,25.0,17.9,29.60,South,180,7.0,7.0,74,0.00,,,0.00,Weather View 32 v70,2013-11-23 03:54:00,
2013-11-22 18:59:00,25.0,17.9,29.60,SSE,158,7.0,7.0,74,0.00,,,0.00,Weather View 32 v70,2013-11-23 03:59:00,
2013-11-22 19:04:00,24.8,18.0,29.60,South,180,6.0,7.0,75,0.00,,,0.00,Weather View 32 v70,2013-11-23 04:04:00,
2013-11-22 19:09:00,24.3,17.5,29.61,SSW,202,5.0,7.0,75,0.00,,,0.00,Weather View 32 v70,2013-11-23 04:09:00,
2013-11-22 19:14:00,24.1,17.6,29.61,SSE,158,4.0,7.0,76,0.00,,,0.00,Weather View 32 v70,2013-11-23 04:14:00,
2013-11-22 19:19:00,23.9,17.4,29.61,SSE,158,4.0,7.0,76,0.00,,,0.00,Weather View 32 v70,2013-11-23 04:19:00,
2013-11-22 19:24:00,23.9,17.7,29.61,SSE,158,4.0,7.0,77,0.00,,,0.00,Weather View 32 v70,2013-11-23 04:24:00,
2013-11-22 19:29:00,23.9,18.0,29.62,South,180,4.0,7.0,78,0.00,,,0.00,Weather View 32 v70,2013-11-23 04:29:00,
2013-11-22 19:34:00,23.4,17.5,29.62,South,180,4.0,7.0,78,0.00,,,0.00,Weather View 32 v70,2013-11-23 04:34:00,
2013-11-22 19:39:00,23.2,17.3,29.62,SW,225,3.0,7.0,78,0.00,,,0.00,Weather View 32 v70,2013-11-23 04:39:00,
2013-11-22 19:44:00,23.0,17.2,29.62,SE,135,3.0,7.0,78,0.00,,,0.00,Weather View 32 v70,2013-11-23 04:44:00,
2013-11-22 19:49:00,22.8,17.3,29.63,South,180,3.0,7.0,79,0.00,,,0.00,Weather View 32 v70,2013-11-23 04:49:00,
2013-11-22 19:54:00,22.8,17.0,29.63,SSW,202,3.0,7.0,78,0.00,,,0.00,Weather View 32 v70,2013-11-23 04:54:00,
2013-11-22 19:59:00,22.8,17.0,29.63,SE,135,3.0,7.0,78,0.00,,,0.00,Weather View 32 v70,2013-11-23 04:59:00,
2013-11-22 20:01:00,22.5,16.9,29.63,SE,135,3.0,7.0,79,0.00,,,0.00,Weather View 32 v70,2013-11-23 05:01:00,
2013-11-22 20:06:00,22.5,16.9,29.65,SSE,158,3.0,6.0,79,0.00,,,0.00,Weather View 32 v70,2013-11-23 05:06:00,
2013-11-22 20:11:00,22.1,16.9,29.65,SSE,158,3.0,5.0,80,0.00,,,0.00,Weather View 32 v70,2013-11-23 05:11:00,
2013-11-22 20:16:00,21.7,16.5,29.65,NE,45,3.0,4.0,80,0.00,,,0.00,Weather View 32 v70,2013-11-23 05:16:00,
2013-11-22 20:21:00,21.4,16.5,29.65,SE,135,2.0,4.0,81,0.00,,,0.00,Weather View 32 v70,2013-11-23 05:21:00,
2013-11-22 20:26:00,21.2,16.3,29.65,SE,135,2.0,4.0,81,0.00,,,0.00,Weather View 32 v70,2013-11-23 05:26:00,
2013-11-22 20:31:00,20.7,15.8,29.65,West,270,1.0,4.0,81,0.00,,,0.00,Weather View 32 v70,2013-11-23 05:31:00,
2013-11-22 20:36:00,20.1,15.2,29.65,SE,135,1.0,4.0,81,0.00,,,0.00,Weather View 32 v70,2013-11-23 05:36:00,
2013-11-22 20:41:00,19.6,15.0,29.65,ESE,112,0.0,3.0,82,0.00,,,0.00,Weather View 32 v70,2013-11-23 05:41:00,
2013-11-22 20:46:00,19.2,14.9,29.66,East,90,0.0,3.0,83,0.00,,,0.00,Weather View 32 v70,2013-11-23 05:46:00,
2013-11-22 20:51:00,18.5,14.2,29.66,ESE,112,0.0,3.0,83,0.00,,,0.00,Weather View 32 v70,2013-11-23 05:51:00,
2013-11-22 20:56:00,18.0,13.9,29.66,SE,135,0.0,3.0,84,0.00,,,0.00,Weather View 32 v70,2013-11-23 05:56:00,
2013-11-22 21:01:00,17.4,13.4,29.66,SE,135,0.0,3.0,84,0.00,,,0.00,Weather View 32 v70,2013-11-23 06:01:00,
2013-11-22 21:06:00,17.1,13.3,29.67,NNE,22,0.0,3.0,85,0.00,,,0.00,Weather View 32 v70,2013-11-23 06:06:00,
2013-11-22 21:11:00,17.1,13.3,29.67,NNE,22,0.0,3.0,85,0.00,,,0.00,Weather View 32 v70,2013-11-23 06:11:00,
2013-11-22 21:16:00,16.7,13.2,29.67,NW,315,0.0,3.0,86,0.00,,,0.00,Weather View 32 v70,2013-11-23 06:16:00,
2013-11-22 21:21:00,16.3,12.9,29.67,NE,45,0.0,2.0,86,0.00,,,0.00,Weather View 32 v70,2013-11-23 06:21:00,
2013-11-22 21:26:00,16.2,12.7,29.67,NE,45,1.0,2.0,86,0.00,,,0.00,Weather View 32 v70,2013-11-23 06:26:00,
2013-11-22 21:31:00,16.0,12.8,29.67,NNE,22,1.0,2.0,87,0.00,,,0.00,Weather View 32 v70,2013-11-23 06:31:00,
2013-11-22 21:36:00,16.0,12.8,29.67,NNE,22,1.0,1.0,87,0.00,,,0.00,Weather View 32 v70,2013-11-23 06:36:00,
2013-11-22 21:41:00,15.4,12.3,29.67,NNE,22,0.0,1.0,87,0.00,,,0.00,Weather View 32 v70,2013-11-23 06:41:00,
2013-11-22 21:46:00,15.3,12.1,29.67,NE,45,0.0,1.0,87,0.00,,,0.00,Weather View 32 v70,2013-11-23 06:46:00,
2013-11-22 21:51:00,14.7,11.6,29.67,NE,45,0.0,1.0,87,0.00,,,0.00,Weather View 32 v70,2013-11-23 06:51:00,
2013-11-22 21:56:00,14.5,11.4,29.67,NE,45,0.0,1.0,87,0.00,,,0.00,Weather View 32 v70,2013-11-23 06:56:00,
2013-11-22 22:01:00,14.0,10.9,29.67,NE,45,0.0,1.0,87,0.00,,,0.00,Weather View 32 v70,2013-11-23 07:01:00,
2013-11-22 22:06:00,13.8,10.7,29.67,ESE,112,0.0,1.0,87,0.00,,,0.00,Weather View 32 v70,2013-11-23 07:06:00,
2013-11-22 22:11:00,13.5,10.3,29.67,ESE,112,0.0,1.0,87,0.00,,,0.00,Weather View 32 v70,2013-11-23 07:11:00,
2013-11-22 22:16:00,13.1,10.0,29.67,ENE,68,0.0,1.0,87,0.00,,,0.00,Weather View 32 v70,2013-11-23 07:16:00,
2013-11-22 22:21:00,12.7,9.6,29.67,SE,135,0.0,1.0,87,0.00,,,0.00,Weather View 32 v70,2013-11-23 07:21:00,
2013-11-22 22:26:00,12.6,9.4,29.68,SSE,158,0.0,1.0,87,0.00,,,0.00,Weather View 32 v70,2013-11-23 07:26:00,
2013-11-22 22:31:00,12.7,9.9,29.68,SW,225,0.0,1.0,88,0.00,,,0.00,Weather View 32 v70,2013-11-23 07:31:00,
2013-11-22 22:36:00,13.1,10.2,29.68,SW,225,1.0,1.0,88,0.00,,,0.00,Weather View 32 v70,2013-11-23 07:36:00,
2013-11-22 22:41:00,13.8,11.2,29.68,SSE,158,1.0,1.0,89,0.00,,,0.00,Weather View 32 v70,2013-11-23 07:41:00,
2013-11-22 22:46:00,14.2,11.5,29.68,West,270,1.0,1.0,89,0.00,,,0.00,Weather View 32 v70,2013-11-23 07:46:00,
2013-11-22 22:51:00,14.9,12.2,29.68,West,270,0.0,1.0,89,0.00,,,0.00,Weather View 32 v70,2013-11-23 07:51:00,
2013-11-22 22:56:00,15.4,13.0,29.68,SW,225,0.0,1.0,90,0.00,,,0.00,Weather View 32 v70,2013-11-23 07:56:00,
2013-11-22 23:01:00,15.3,12.6,29.68,WSW,248,0.0,1.0,89,0.00,,,0.00,Weather View 32 v70,2013-11-23 08:01:00,
2013-11-22 23:06:00,15.3,12.6,29.68,SW,225,0.0,1.0,89,0.00,,,0.00,Weather View 32 v70,2013-11-23 08:06:00,
2013-11-22 23:11:00,15.6,13.0,29.68,NW,315,0.0,1.0,89,0.00,,,0.00,Weather View 32 v70,2013-11-23 08:11:00,
2013-11-22 23:16:00,15.4,12.8,29.68,WSW,248,0.0,1.0,89,0.00,,,0.00,Weather View 32 v70,2013-11-23 08:16:00,
2013-11-22 23:21:00,15.4,12.8,29.68,West,270,1.0,1.0,89,0.00,,,0.00,Weather View 32 v70,2013-11-23 08:21:00,
2013-11-22 23:26:00,15.6,13.0,29.68,SE,135,1.0,1.0,89,0.00,,,0.00,Weather View 32 v70,2013-11-23 08:26:00,
2013-11-22 23:32:00,15.6,13.0,29.68,SE,135,1.0,1.0,89,0.00,,,0.00,Weather View 32 v70,2013-11-23 08:32:00,
2013-11-22 23:37:00,15.4,12.8,29.68,SE,135,2.0,2.0,89,0.00,,,0.00,Weather View 32 v70,2013-11-23 08:37:00,
2013-11-22 23:42:00,15.3,12.3,29.68,SE,135,2.0,2.0,88,0.00,,,0.00,Weather View 32 v70,2013-11-23 08:42:00,
2013-11-22 23:47:00,15.3,12.6,29.69,SE,135,2.0,2.0,89,0.00,,,0.00,Weather View 32 v70,2013-11-23 08:47:00,
2013-11-22 23:52:00,15.4,12.8,29.69,SSE,158,2.0,2.0,89,0.00,,,0.00,Weather View 32 v70,2013-11-23 08:52:00,
2013-11-22 23:57:00,16.3,13.7,29.69,SE,135,2.0,2.0,89,0.00,,,0.00,Weather View 32 v70,2013-11-23 08:57:00,